[[{"header":{"parameterUnit":"m.s-1","parameterCategory":2,"la1":30.2991,"la2":30.254,"lo1":-89.0895,"lo2":-89.0444,"dy":0.0017,"dx":0.0017,"nx":28,"ny":28,"refTime":"2026-01-01T03:00:00:Z","depth":"0","parameterNumber":2,"parameterNumberName":"U-component_of_CURRENTS"},"data":[0,0,0,0,0,0,0,0,0,0,0,0,0,0,0,0,0,0,0,0,0,0,0,0,0,0,0,0,0,0,0,0,0,0,0,0,0,0,0,0,0,0,0,0,0,0,0,0,0,0,0,0,0,0,0,0,0,0,0.3365,0.3365,0,0.3369,0.3369,0.3369,0.3341,0.334,0.334,0.3339,0.3324,0.3324,0.3324,0,0,0,0,0,0,0,0,0,0,0,0,0,0.3353,0.3353,0.3365,0.3365,0.3365,0.3369,0.3369,0.3369,0.3341,0.334,0.334,0.3339,0.3324,0.3324,0.3324,0,0,0,0,0,0,0,0,0,0,0,0,0,0.3356,0.3353,0.3365,0.3354,0.3353,0.3369,0.3369,0.3369,0.3341,0.334,0.334,0.3339,0.3324,0.3324,0.3324,0.3343,0,0,0.3324,0.3325,0,0,0,0,0,0,0,0,0.3356,0.3356,0.3355,0.3354,0.3354,0.3356,0.3359,0.336,0.3341,0.3343,0.3339,0.3338,0.3335,0.3334,0.3334,0.3342,0.3341,0.3325,0.3325,0.3325,0.3325,0,0,0,0,0,0,0,0.3355,0.3356,0.3364,0.3355,0.3355,0.3356,0.3355,0.3359,0.3342,0.3343,0.3342,0.3346,0.3334,0.3334,0.3333,0.3341,0.3324,0.3325,0.3325,0.3325,0.3394,0.3396,0,0,0,0,0,0,0.3359,0.3355,0.3364,0.3364,0.3355,0.3357,0.3356,0.3354,0.3342,0.334,0.3347,0.3345,0.3334,0.3333,0.3332,0.3373,0.3325,0.3325,0.3325,0.3393,0.3395,0.3397,0,0,0,0,0,0,0.3359,0.336,0.3364,0.3362,0.3363,0.3358,0.3357,0.3355,0.3358,0.3346,0.3342,0.3352,0.3333,0.3332,0.3347,0.3371,0.3325,0.3325,0.3391,0.3393,0.3396,0.3441,0,0,0,0,0,0,0.3359,0.336,0.3362,0.3362,0.3363,0.3378,0.3358,0.3355,0.3363,0.336,0.335,0.3347,0.3332,0.3347,0.3347,0.337,0.3325,0.3388,0.3392,0.3395,0.3438,0.3445,0.3452,0,0,0,0,0,0.3358,0.3361,0.3362,0.3363,0.3366,0.3379,0.338,0.3371,0.3364,0.337,0.3367,0.3347,0.3368,0.3348,0.3348,0.3372,0.3387,0.3391,0.3395,0.3434,0.3444,0.3451,0,0,0,0,0,0,0.3353,0.3359,0.336,0.3363,0.3375,0.3375,0.3379,0.338,0.3383,0.338,0.3365,0.3363,0.339,0.3379,0.3358,0.3405,0.3376,0.338,0.3407,0.3415,0.3422,0.3425,0.3325,0,0,0,0,0,0.3357,0.336,0.337,0.3374,0.3381,0.3384,0.3389,0.3389,0.3392,0.3392,0.3387,0.339,0.3407,0.3408,0.3417,0.3437,0.3442,0.3456,0.3463,0.3469,0.3474,0.3518,0.3529,0.341,0.3409,0.3409,0,0,0.3355,0.336,0.3361,0.3374,0.3379,0.3396,0.3384,0.3397,0.3412,0.3392,0.3406,0.3416,0.3421,0.3447,0.3457,0.3437,0.3505,0.3474,0.3479,0.348,0.3523,0.3535,0.3545,0.3412,0.3412,0.3411,0,0,0.3354,0.336,0.3364,0.3379,0.3397,0.3406,0.3415,0.3425,0.3429,0.3452,0.3449,0.3475,0.3484,0.3498,0.3507,0.3561,0.3546,0.3564,0.3593,0.3636,0.3646,0.3655,0.3669,0.3678,0.3561,0.3561,0.3561,0,0.3354,0.3358,0.3369,0.3383,0.3395,0.3414,0.3428,0.3445,0.346,0.3477,0.3462,0.3515,0.3513,0.3562,0.3577,0.3576,0.3588,0.3556,0.3644,0.3653,0.3661,0.3674,0.3684,0.3563,0.3563,0.3563,0.3562,0,0.3357,0.3367,0.3373,0.3397,0.3416,0.3431,0.3461,0.3485,0.3498,0.3519,0.3569,0.3578,0.3609,0.3618,0.3609,0.3673,0.3658,0.3653,0.3619,0.3676,0.3685,0.3695,0.3567,0.3566,0.3565,0.3565,0,0,0.3333,0.3367,0.3368,0.3378,0.3423,0.3434,0.348,0.3525,0.3563,0.3588,0.3634,0.367,0.3685,0.3697,0.37,0.3729,0.379,0.3712,0.3713,0.3719,0.3869,0.3808,0.3812,0.3801,0.3803,0.3805,0.3849,0,0.3329,0.3347,0.3372,0.3397,0.3408,0.3453,0.3496,0.3546,0.3591,0.3644,0.3681,0.3726,0.3714,0.3731,0.3767,0.3793,0.3819,0.3777,0.382,0.382,0.3754,0.3823,0.3655,0.3677,0.3859,0.386,0.3861,0,0.3313,0.333,0.3346,0.3393,0.3404,0.343,0.3504,0.3548,0.3645,0.3686,0.3752,0.3781,0.3843,0.3815,0.3894,0.3868,0.3873,0.3882,0.3884,0.3817,0.3778,0.3653,0.3688,0.3596,0.3876,0.3875,0.3874,0,0.3265,0.3306,0.3313,0.3328,0.3393,0.3415,0.3459,0.3555,0.3608,0.3714,0.3762,0.3847,0.3888,0.3925,0.3948,0.3927,0.4022,0.3995,0.3942,0.3936,0.3797,0.3775,0.3741,0.4045,0.4045,0.4045,0.4045,0,0.3236,0.3241,0.3289,0.3291,0.332,0.338,0.3436,0.3506,0.3617,0.3686,0.3773,0.3842,0.3919,0.3977,0.3982,0.4,0.4055,0.3961,0.3956,0.3807,0.3787,0.3702,0.368,0.4046,0.4046,0.4046,0.4045,0,0.3171,0.3202,0.3213,0.3272,0.3291,0.3309,0.3407,0.3454,0.3574,0.3666,0.3699,0.3856,0.3938,0.3991,0.4063,0.4038,0.3947,0.4042,0.385,0.382,0.3661,0.3649,0.351,0.3415,0.3987,0.3986,0.3985,0,0.3137,0.3134,0.3179,0.3183,0.3204,0.3249,0.3284,0.3413,0.3472,0.3667,0.37,0.3833,0.3902,0.3997,0.3987,0.3989,0.39,0.3832,0.376,0.3643,0.3626,0.3508,0.343,0.3589,0.3585,0.3582,0.3579,0,0.3075,0.3089,0.3098,0.3109,0.3127,0.316,0.3221,0.3267,0.3422,0.35,0.3618,0.3695,0.3816,0.3773,0.381,0.3795,0.3648,0.3762,0.3696,0.3363,0.3178,0.3085,0.3561,0.3549,0.3552,0.3555,0.3556,0.3557,0.3024,0.301,0.302,0.3017,0.3035,0.3046,0.3034,0.312,0.3187,0.3279,0.3454,0.3495,0.357,0.3602,0.357,0.3419,0.3444,0.3303,0.3313,0.3217,0.3069,0.3473,0.3425,0.3427,0.3429,0.343,0.3432,0,0.2942,0.2929,0.2927,0.2904,0.2868,0.2926,0.296,0.2928,0.2933,0.3077,0.3146,0.3181,0.3158,0.319,0.3112,0.2989,0.2856,0.2912,0.2707,0.2667,0.307,0.2996,0.2785,0.2785,0.2785,0.2785,0.2786,0.2786,0.2897,0.2845,0.2832,0.2733,0.2716,0.2628,0.2615,0.2599,0.2649,0.2651,0.2662,0.2766,0.2904,0.2919,0.2773,0.2698,0.2509,0.2377,0.2417,0.2709,0.2746,0.278,0.2705,0.2436,0.2436,0.1867,0.1863,0.186]},{"header":{"parameterUnit":"m.s-1","parameterCategory":2,"la1":30.2991,"la2":30.254,"lo1":-89.0895,"lo2":-89.0444,"dy":0.0017,"dx":0.0017,"nx":28,"ny":28,"refTime":"2026-01-01T03:00:00:Z","depth":"0","parameterNumber":3,"parameterNumberName":"V-component_of_CURRENTS"},"data":[0,0,0,0,0,0,0,0,0,0,0,0,0,0,0,0,0,0,0,0,0,0,0,0,0,0,0,0,0,0,0,0,0,0,0,0,0,0,0,0,0,0,0,0,0,0,0,0,0,0,0,0,0,0,0,0,0,0,0.0258,0.0257,0,0.0214,0.0214,0.0213,0.0177,0.0176,0.0176,0.0176,0.0119,0.0117,0.0116,0,0,0,0,0,0,0,0,0,0,0,0,0,0.0251,0.0251,0.0258,0.0257,0.0257,0.0214,0.0214,0.0213,0.0177,0.0176,0.0176,0.0176,0.0119,0.0117,0.0116,0,0,0,0,0,0,0,0,0,0,0,0,0,0.0234,0.0252,0.0258,0.0235,0.0233,0.0215,0.0214,0.0213,0.0177,0.0176,0.0176,0.0176,0.0119,0.0118,0.0116,0.0111,0,0,0.011,0.0109,0,0,0,0,0,0,0,0,0.0235,0.0234,0.0239,0.0236,0.0234,0.0202,0.019,0.0179,0.0177,0.0196,0.0176,0.0175,0.0146,0.0142,0.0133,0.0108,0.0106,0.0109,0.0108,0.0107,0.0107,0,0,0,0,0,0,0,0.0236,0.0235,0.0239,0.0238,0.0235,0.0207,0.0205,0.0187,0.0172,0.0194,0.0192,0.019,0.0145,0.0135,0.0131,0.0105,0.011,0.0108,0.0107,0.0106,0.0081,0.0081,0,0,0,0,0,0,0.0249,0.0237,0.024,0.0238,0.0235,0.0208,0.0205,0.0211,0.0173,0.0167,0.019,0.0189,0.0138,0.0133,0.0129,0.0142,0.0107,0.0106,0.0105,0.008,0.0081,0.0082,0,0,0,0,0,0,0.0249,0.025,0.0242,0.0237,0.0234,0.0209,0.0216,0.0211,0.0204,0.017,0.0164,0.019,0.0138,0.0132,0.0121,0.0139,0.0105,0.0103,0.008,0.0081,0.0081,0.0154,0,0,0,0,0,0,0.0249,0.025,0.0258,0.0238,0.0235,0.0244,0.0216,0.021,0.0204,0.0201,0.0168,0.0162,0.0137,0.0125,0.0119,0.0135,0.0101,0.0079,0.008,0.0081,0.0151,0.0157,0.0163,0,0,0,0,0,0.0249,0.0268,0.0259,0.0259,0.0247,0.0244,0.024,0.0219,0.0205,0.021,0.0185,0.0163,0.0127,0.0124,0.0117,0.0133,0.0079,0.008,0.0081,0.0149,0.0156,0.0163,0,0,0,0,0,0,0.0268,0.0265,0.0255,0.0271,0.0263,0.0239,0.0241,0.0226,0.0209,0.0204,0.017,0.0163,0.0157,0.0135,0.0133,0.0128,0.0099,0.0099,0.0153,0.0159,0.0165,0.0186,0.01,0,0,0,0,0,0.0276,0.0289,0.0278,0.0289,0.0288,0.0264,0.0259,0.0247,0.023,0.0222,0.0199,0.0174,0.0157,0.0151,0.0129,0.0131,0.0102,0.0135,0.0141,0.0146,0.0159,0.0129,0.0133,0.0085,0.0085,0.0085,0,0,0.0285,0.0286,0.0292,0.0294,0.0282,0.0296,0.0261,0.026,0.0271,0.0218,0.0223,0.0191,0.016,0.0158,0.0155,0.0144,0.0144,0.0148,0.0153,0.0162,0.013,0.0135,0.0139,0.0086,0.0086,0.0086,0,0,0.0315,0.0311,0.0334,0.0334,0.0329,0.0318,0.0323,0.0306,0.0296,0.0294,0.0259,0.0242,0.0216,0.02,0.0188,0.0214,0.0171,0.0204,0.0257,0.0228,0.0232,0.0235,0.0202,0.0201,0.0212,0.0213,0.0213,0,0.0325,0.0356,0.0338,0.0362,0.0371,0.0336,0.0365,0.0352,0.0333,0.0335,0.0306,0.027,0.0239,0.0244,0.025,0.0228,0.0202,0.0235,0.0236,0.0239,0.024,0.0206,0.0205,0.0216,0.0216,0.0215,0.0215,0,0.0376,0.0399,0.0412,0.0434,0.0441,0.0458,0.0445,0.0442,0.0422,0.0412,0.0403,0.0353,0.0336,0.0319,0.0291,0.0296,0.0269,0.0243,0.0222,0.025,0.0211,0.0209,0.0221,0.022,0.0219,0.0218,0,0,0.0406,0.0443,0.0448,0.0476,0.0483,0.0498,0.0511,0.0524,0.0547,0.0504,0.0525,0.0479,0.0447,0.0431,0.0388,0.0362,0.0343,0.0315,0.0312,0.0289,0.0276,0.0255,0.0249,0.0317,0.0317,0.0317,0.0243,0,0.0452,0.0519,0.0522,0.0583,0.0618,0.0597,0.0622,0.0623,0.0613,0.0621,0.0561,0.056,0.0493,0.0484,0.0447,0.0373,0.034,0.0365,0.0247,0.0244,0.0226,0.0247,0.0272,0.0208,0.024,0.0239,0.0239,0,0.0505,0.0546,0.0616,0.0672,0.0685,0.0712,0.0749,0.077,0.0764,0.0756,0.0732,0.0681,0.0638,0.057,0.0459,0.0477,0.0387,0.0318,0.0313,0.0269,0.0218,0.0185,0.0202,0.0064,0.0234,0.0235,0.0235,0,0.0548,0.0614,0.0676,0.0695,0.0746,0.077,0.0796,0.0811,0.0852,0.0843,0.0859,0.079,0.0763,0.0641,0.0489,0.0475,0.0359,0.0319,0.0212,0.0208,0.0196,0.0192,0.0074,0.0238,0.0238,0.0238,0.0238,0,0.0603,0.0653,0.0702,0.0739,0.0821,0.0831,0.0916,0.0924,0.096,0.1032,0.0936,0.0959,0.078,0.0684,0.0529,0.0369,0.0386,0.0229,0.0193,0.0221,0.022,0.0071,-0.0012,0.0235,0.0236,0.0236,0.0237,0,0.0642,0.0671,0.0754,0.0819,0.0845,0.0906,0.1003,0.1068,0.108,0.1163,0.1162,0.1093,0.0971,0.0773,0.0584,0.0438,0.0194,0.0207,0.0249,0.0221,-0.0006,-0.0085,-0.0249,-0.0297,0.0083,0.0082,0.0081,0,0.067,0.0715,0.0815,0.0874,0.0907,0.1,0.1072,0.1125,0.1208,0.1257,0.1304,0.1203,0.1168,0.0866,0.0585,0.0312,0.0166,0.0152,0.0126,-0.0008,-0.0122,-0.0182,-0.0214,0.0131,0.013,0.013,0.013,0,0.0726,0.0757,0.0825,0.0946,0.1033,0.1149,0.1256,0.134,0.1417,0.1482,0.1547,0.1515,0.1228,0.0964,0.0576,0.0388,0.0067,0.0138,-0.0008,-0.0097,-0.016,-0.0226,0.0159,0.0128,0.0128,0.0128,0.0128,0.0128,0.0764,0.0822,0.091,0.1028,0.1136,0.1279,0.1389,0.1513,0.1654,0.1775,0.1739,0.1733,0.1333,0.0811,0.0532,0.0046,0.0033,-0.0096,-0.0182,-0.0231,-0.0273,0.0108,0.0041,0.0041,0.0041,0.0041,0.004,0,0.0808,0.0878,0.0988,0.1131,0.1259,0.131,0.15,0.1624,0.1802,0.1914,0.1977,0.1779,0.1301,0.0805,0.0132,-0.0206,-0.0309,-0.0393,-0.0469,-0.0488,-0.0154,-0.0145,-0.0243,-0.0243,-0.0242,-0.0242,-0.0242,-0.0242,0.0834,0.0936,0.0995,0.1204,0.1311,0.1492,0.1609,0.1794,0.1922,0.2068,0.2073,0.2048,0.1638,0.0428,-0.0335,-0.0493,-0.0718,-0.0793,-0.0902,-0.0678,-0.0656,-0.0636,-0.0647,-0.0848,-0.0849,-0.1169,-0.1173,-0.1175]}],[{"header":{"parameterUnit":"m.s-1","parameterCategory":2,"la1":30.2991,"la2":30.254,"lo1":-89.0895,"lo2":-89.0444,"dy":0.0017,"dx":0.0017,"nx":28,"ny":28,"refTime":"2026-01-01T03:00:00:Z","depth":"2","parameterNumber":2,"parameterNumberName":"U-component_of_CURRENTS"},"data":[0,0,0,0,0,0,0,0,0,0,0,0,0,0,0,0,0,0,0,0,0,0,0,0,0,0,0,0,0,0,0,0,0,0,0,0,0,0,0,0,0,0,0,0,0,0,0,0,0,0,0,0,0,0,0,0,0,0,0.2842,0.2842,0,0.2848,0.2848,0.2848,0.2833,0.2833,0.2833,0.2833,0.2825,0.2825,0.2825,0,0,0,0,0,0,0,0,0,0,0,0,0,0.2826,0.2826,0.2842,0.2842,0.2843,0.2848,0.2848,0.2848,0.2833,0.2833,0.2833,0.2833,0.2825,0.2825,0.2825,0,0,0,0,0,0,0,0,0,0,0,0,0,0.283,0.2826,0.2842,0.2838,0.2838,0.2848,0.2848,0.2848,0.2833,0.2833,0.2833,0.2832,0.2825,0.2825,0.2825,0.2831,0,0,0.2825,0.2825,0,0,0,0,0,0,0,0,0.283,0.283,0.2838,0.2838,0.2838,0.2842,0.2839,0.2842,0.2834,0.2832,0.2833,0.2832,0.2831,0.2831,0.2829,0.2831,0.2831,0.2825,0.2825,0.2825,0.2825,0,0,0,0,0,0,0,0.283,0.283,0.2842,0.2839,0.2839,0.2839,0.2839,0.284,0.2831,0.2832,0.2832,0.2837,0.2831,0.2829,0.2829,0.2831,0.2825,0.2825,0.2825,0.2825,0.289,0.2892,0,0,0,0,0,0,0.2834,0.283,0.2842,0.2842,0.2836,0.284,0.2839,0.2839,0.2832,0.2831,0.2837,0.2836,0.2829,0.2829,0.2828,0.2876,0.2825,0.2825,0.2825,0.2888,0.289,0.2892,0,0,0,0,0,0,0.2834,0.2835,0.2841,0.2838,0.284,0.284,0.284,0.2839,0.285,0.2836,0.2834,0.285,0.2829,0.2828,0.2846,0.2874,0.2825,0.2825,0.2886,0.2889,0.2891,0.2945,0,0,0,0,0,0,0.2833,0.2834,0.2841,0.2839,0.284,0.2857,0.2841,0.284,0.2854,0.2853,0.2846,0.2844,0.2829,0.2847,0.2846,0.2873,0.2825,0.2884,0.2887,0.2891,0.2941,0.2949,0.2956,0,0,0,0,0,0.2832,0.2838,0.2841,0.2843,0.2847,0.2858,0.2859,0.2856,0.2855,0.2863,0.2864,0.2845,0.2867,0.2848,0.2847,0.2874,0.2883,0.2887,0.289,0.2937,0.2947,0.2956,0,0,0,0,0,0,0.2832,0.2837,0.284,0.2847,0.2859,0.2857,0.2865,0.2868,0.2875,0.2878,0.2862,0.2861,0.2891,0.2879,0.2858,0.2905,0.2874,0.2878,0.291,0.2919,0.2927,0.293,0.2825,0,0,0,0,0,0.2837,0.2843,0.2852,0.2859,0.2866,0.2871,0.2878,0.2881,0.2885,0.2888,0.2886,0.2891,0.2905,0.2908,0.2916,0.2936,0.2938,0.2957,0.2964,0.297,0.2975,0.3014,0.3025,0.2905,0.2905,0.2905,0,0,0.2838,0.2844,0.2847,0.2861,0.2867,0.2883,0.2874,0.2891,0.2907,0.2887,0.2909,0.2918,0.2919,0.2946,0.2958,0.2938,0.3006,0.2975,0.298,0.2981,0.3019,0.303,0.3041,0.2908,0.2907,0.2907,0,0,0.2842,0.2852,0.2859,0.2872,0.2893,0.29,0.2911,0.2923,0.2932,0.2958,0.2955,0.2982,0.2992,0.3002,0.3008,0.3063,0.3048,0.3069,0.3102,0.314,0.315,0.3159,0.3173,0.3182,0.3067,0.3067,0.3067,0,0.2847,0.2853,0.2864,0.2879,0.2892,0.2912,0.2928,0.2945,0.2963,0.2981,0.2972,0.3023,0.302,0.3064,0.3082,0.3079,0.3091,0.3064,0.3149,0.3158,0.3166,0.3178,0.3188,0.307,0.307,0.3069,0.3069,0,0.2853,0.2866,0.2874,0.2899,0.2918,0.2936,0.2963,0.299,0.3009,0.303,0.3082,0.3089,0.312,0.3129,0.3118,0.318,0.3167,0.3158,0.3123,0.3181,0.319,0.32,0.3074,0.3073,0.3072,0.3072,0,0,0.2837,0.2871,0.2874,0.2886,0.293,0.2941,0.2988,0.3031,0.307,0.31,0.3148,0.3181,0.32,0.3209,0.3211,0.3238,0.33,0.3223,0.3223,0.323,0.3374,0.3306,0.3309,0.3308,0.3311,0.3312,0.3356,0,0.2839,0.2858,0.2882,0.2911,0.2923,0.2966,0.3007,0.3056,0.3102,0.3157,0.3192,0.324,0.3227,0.3251,0.3282,0.3302,0.3328,0.3288,0.3322,0.3323,0.3251,0.3319,0.3053,0.3065,0.3365,0.3367,0.3368,0,0.2829,0.2846,0.2866,0.2912,0.2924,0.2953,0.3026,0.3069,0.3162,0.3204,0.3271,0.3301,0.3361,0.3335,0.3404,0.3382,0.3385,0.3389,0.3391,0.3315,0.3273,0.3058,0.307,0.3383,0.3382,0.3381,0.338,0,0.2789,0.283,0.2843,0.2858,0.292,0.2947,0.2992,0.3083,0.3134,0.3243,0.3293,0.3372,0.3415,0.3446,0.3463,0.3444,0.3525,0.3497,0.3436,0.343,0.3202,0.3172,0.3542,0.3542,0.3542,0.3541,0.3541,0,0.2766,0.2776,0.2826,0.2832,0.2867,0.2924,0.2984,0.3053,0.3159,0.3225,0.3314,0.3377,0.3448,0.3497,0.3498,0.3502,0.3559,0.3456,0.3447,0.3212,0.3185,0.3457,0.3446,0.3543,0.3543,0.3542,0.3542,0,0.2712,0.2744,0.276,0.2822,0.2844,0.287,0.2968,0.3013,0.3132,0.3222,0.3259,0.34,0.3472,0.3517,0.3575,0.354,0.355,0.353,0.3242,0.3199,0.3416,0.3408,0.3469,0.3467,0.3466,0.3465,0.3464,0,0.2683,0.2685,0.2738,0.2746,0.2772,0.2824,0.286,0.2985,0.3039,0.3223,0.3254,0.3379,0.3431,0.3503,0.3474,0.3466,0.353,0.3205,0.3119,0.3428,0.3414,0.3408,0.3402,0.2832,0.2826,0.2821,0.2817,0,0.263,0.2649,0.2662,0.2683,0.2709,0.274,0.2804,0.2845,0.299,0.3068,0.3173,0.3236,0.3328,0.3213,0.3229,0.319,0.3187,0.3103,0.351,0.29,0.2833,0.2818,0.2832,0.2772,0.2777,0.278,0.2782,0.2784,0.2588,0.2577,0.2594,0.2601,0.2626,0.2632,0.262,0.2699,0.276,0.2844,0.2995,0.2991,0.3028,0.2919,0.2826,0.2753,0.2974,0.2823,0.2836,0.2854,0.2781,0.2716,0.2618,0.2621,0.2624,0.2627,0.2629,0,0.2515,0.2507,0.251,0.2496,0.2465,0.2527,0.2553,0.2513,0.2517,0.2633,0.2689,0.2482,0.242,0.2446,0.2265,0.2266,0.2221,0.2169,0.2075,0.2123,0.2165,0.2053,0.1699,0.1695,0.1692,0.169,0,0,0.2475,0.2431,0.2419,0.2331,0.2323,0.2245,0.2229,0.2202,0.2231,0.2201,0.2178,0.2362,0.2405,0.203,0.1979,0.1801,0.1949,0.1735,0.249,0.2431,0.2469,0.2561,0.2447,0,0,0,0,0]},{"header":{"parameterUnit":"m.s-1","parameterCategory":2,"la1":30.2991,"la2":30.254,"lo1":-89.0895,"lo2":-89.0444,"dy":0.0017,"dx":0.0017,"nx":28,"ny":28,"refTime":"2026-01-01T03:00:00:Z","depth":"2","parameterNumber":3,"parameterNumberName":"V-component_of_CURRENTS"},"data":[0,0,0,0,0,0,0,0,0,0,0,0,0,0,0,0,0,0,0,0,0,0,0,0,0,0,0,0,0,0,0,0,0,0,0,0,0,0,0,0,0,0,0,0,0,0,0,0,0,0,0,0,0,0,0,0,0,0,0.0282,0.0281,0,0.0244,0.0243,0.0243,0.0214,0.0214,0.0214,0.0214,0.0166,0.0165,0.0164,0,0,0,0,0,0,0,0,0,0,0,0,0,0.0277,0.0277,0.0282,0.0281,0.0281,0.0244,0.0243,0.0243,0.0214,0.0214,0.0214,0.0213,0.0166,0.0165,0.0164,0,0,0,0,0,0,0,0,0,0,0,0,0,0.0262,0.0277,0.0282,0.0263,0.0261,0.0244,0.0243,0.0242,0.0214,0.0214,0.0214,0.0213,0.0167,0.0165,0.0163,0.0158,0,0,0.0158,0.0157,0,0,0,0,0,0,0,0,0.0263,0.0262,0.0266,0.0264,0.0262,0.0234,0.0224,0.0214,0.0214,0.0231,0.0214,0.0213,0.0189,0.0185,0.0177,0.0156,0.0154,0.0158,0.0157,0.0156,0.0156,0,0,0,0,0,0,0,0.0264,0.0263,0.0266,0.0266,0.0263,0.0238,0.0237,0.0222,0.0211,0.0229,0.0227,0.0225,0.0187,0.0179,0.0176,0.0153,0.0158,0.0157,0.0156,0.0155,0.0129,0.0129,0,0,0,0,0,0,0.0274,0.0265,0.0267,0.0265,0.0263,0.0239,0.0237,0.0243,0.0211,0.0206,0.0225,0.0224,0.0182,0.0178,0.0174,0.0183,0.0156,0.0155,0.0154,0.0128,0.0129,0.0129,0,0,0,0,0,0,0.0274,0.0275,0.0268,0.0264,0.0261,0.024,0.0246,0.0242,0.0237,0.0208,0.0203,0.0225,0.0182,0.0176,0.0168,0.0181,0.0154,0.0152,0.0128,0.0128,0.0129,0.0191,0,0,0,0,0,0,0.0274,0.0275,0.0283,0.0265,0.0262,0.0269,0.0247,0.0242,0.0236,0.0234,0.0206,0.0201,0.0181,0.0171,0.0167,0.0178,0.0151,0.0128,0.0128,0.0129,0.0188,0.0193,0.0198,0,0,0,0,0,0.0274,0.029,0.0283,0.0283,0.0273,0.027,0.0266,0.0248,0.0237,0.0241,0.0221,0.0202,0.0171,0.017,0.0165,0.0176,0.0127,0.0128,0.0129,0.0186,0.0192,0.0197,0,0,0,0,0,0,0.029,0.0288,0.028,0.0294,0.0286,0.0265,0.0266,0.0254,0.024,0.0237,0.0208,0.0202,0.0197,0.0178,0.0177,0.0169,0.0145,0.0145,0.0191,0.0196,0.0201,0.022,0.015,0,0,0,0,0,0.0298,0.031,0.0299,0.0309,0.0308,0.0287,0.0282,0.0271,0.0257,0.0251,0.0232,0.021,0.0195,0.019,0.0171,0.0171,0.0143,0.0172,0.0177,0.0181,0.0192,0.0159,0.0162,0.0131,0.0131,0.0131,0,0,0.0305,0.0306,0.0312,0.0313,0.0303,0.0315,0.0284,0.0282,0.0292,0.0248,0.0253,0.0225,0.0197,0.0195,0.0191,0.0182,0.0174,0.0182,0.0186,0.0195,0.016,0.0163,0.0166,0.0132,0.0132,0.0132,0,0,0.0331,0.0328,0.0348,0.0348,0.0343,0.0333,0.0337,0.0321,0.0313,0.0312,0.0282,0.0265,0.0243,0.0227,0.0216,0.0235,0.0197,0.0226,0.027,0.0239,0.0241,0.0243,0.0209,0.0207,0.0233,0.0233,0.0233,0,0.034,0.0368,0.0352,0.0372,0.0381,0.0348,0.0374,0.0362,0.0345,0.0346,0.0322,0.0288,0.026,0.0262,0.0266,0.0247,0.0221,0.0254,0.0245,0.0247,0.0248,0.0212,0.021,0.0236,0.0236,0.0235,0.0235,0,0.0384,0.0405,0.0416,0.0436,0.0441,0.0456,0.0443,0.0439,0.0422,0.0412,0.0401,0.0356,0.034,0.0323,0.0301,0.0298,0.0274,0.0252,0.0235,0.0255,0.0216,0.0212,0.024,0.0239,0.0238,0.0238,0,0,0.0409,0.0443,0.0447,0.0474,0.0479,0.0492,0.0502,0.0511,0.053,0.0491,0.0506,0.0463,0.0434,0.0419,0.038,0.0351,0.0326,0.0311,0.0308,0.0284,0.0254,0.0232,0.0225,0.0302,0.0302,0.0302,0.0224,0,0.045,0.051,0.0512,0.0567,0.0599,0.058,0.06,0.06,0.0588,0.0592,0.0534,0.0532,0.0473,0.0466,0.0426,0.0355,0.032,0.0349,0.0233,0.023,0.0213,0.0221,0.0242,0.0174,0.022,0.0219,0.0218,0,0.0497,0.0534,0.0597,0.0648,0.066,0.0684,0.0715,0.0732,0.0721,0.0712,0.0686,0.0639,0.0594,0.0535,0.0422,0.0444,0.0359,0.0293,0.0288,0.0246,0.0201,0.0161,0.0165,0.0211,0.0212,0.0212,0.0213,0,0.0536,0.0595,0.0652,0.0669,0.0715,0.0737,0.076,0.0769,0.0804,0.0791,0.0804,0.0733,0.0705,0.0588,0.0445,0.0435,0.0311,0.0278,0.0175,0.0172,0.0157,0.0153,0.0196,0.0196,0.0197,0.0197,0.0197,0,0.0585,0.0631,0.0676,0.071,0.0785,0.0793,0.0869,0.0875,0.0902,0.0962,0.0874,0.0888,0.0717,0.062,0.0476,0.0318,0.0332,0.0188,0.0154,0.0178,0.0178,0.0185,0.0185,0.0194,0.0194,0.0195,0.0196,0,0.0621,0.0647,0.0723,0.0783,0.0808,0.0863,0.0951,0.1008,0.1015,0.1083,0.1082,0.1008,0.0885,0.0698,0.0511,0.0375,0.0215,0.0152,0.019,0.0163,0.0087,0.0091,0.0033,0.0032,0.003,0.0029,0.0029,0,0.0646,0.0687,0.078,0.0835,0.0866,0.0951,0.1017,0.1063,0.1135,0.1165,0.1205,0.1101,0.1051,0.0754,0.0494,0.0236,0.0203,0.0085,0.0068,0.0099,0.0072,0.0077,0.0083,0.0066,0.0065,0.0065,0.0065,0,0.0696,0.0726,0.0789,0.0902,0.0983,0.1089,0.1186,0.1259,0.1322,0.1371,0.141,0.1364,0.1085,0.0822,0.0461,0.0292,0.0125,0.0069,0.0093,0.0109,0.0125,0.01,0.0105,0.0061,0.0062,0.0062,0.0062,0.0062,0.0731,0.0785,0.0867,0.0976,0.1077,0.1207,0.1306,0.1412,0.1528,0.1612,0.1565,0.1499,0.1193,0.0731,0.0417,0.0092,0.0114,-0.0001,0.0002,0.0005,0.0028,0.0042,-0.0033,-0.0034,-0.0034,-0.0034,-0.0034,0,0.0771,0.0836,0.0937,0.1069,0.1187,0.1238,0.1407,0.1508,0.1651,0.1712,0.1741,0.1443,0.113,0.077,0.0284,0.0002,-0.001,-0.0086,-0.0045,-0.0039,-0.0035,-0.0014,-0.0087,-0.0088,-0.0089,-0.009,0,0,0.0794,0.0888,0.0942,0.1132,0.1234,0.1401,0.1505,0.1648,0.1732,0.1798,0.1759,0.1679,0.1228,0.0867,0.0472,0.0185,0.0147,0.0139,0.0215,0.0316,0.0324,0.0046,0.009,0,0,0,0,0]}],[{"header":{"parameterUnit":"m.s-1","parameterCategory":2,"la1":30.2991,"la2":30.254,"lo1":-89.0895,"lo2":-89.0444,"dy":0.0017,"dx":0.0017,"nx":28,"ny":28,"refTime":"2026-01-01T03:00:00:Z","depth":"4","parameterNumber":2,"parameterNumberName":"U-component_of_CURRENTS"},"data":[0,0,0,0,0,0,0,0,0,0,0,0,0,0,0,0,0,0,0,0,0,0,0,0,0,0,0,0,0,0,0,0,0,0,0,0,0,0,0,0,0,0,0,0,0,0,0,0,0,0,0,0,0,0,0,0,0,0,0.1823,0.1823,0,0.1867,0.1867,0.1868,0.1911,0.1912,0.1913,0.1914,0.1965,0.1966,0.1966,0,0,0,0,0,0,0,0,0,0,0,0,0,0.1765,0.1765,0.1823,0.1824,0.1824,0.1867,0.1867,0.1868,0.1911,0.1912,0.1913,0.1914,0.1965,0.1966,0.1966,0,0,0,0,0,0,0,0,0,0,0,0,0,0.1795,0.1766,0.1823,0.1853,0.1856,0.1867,0.1868,0.1868,0.1911,0.1912,0.1913,0.1914,0.1965,0.1966,0.1967,0.1949,0,0,0.1969,0.197,0,0,0,0,0,0,0,0,0.1793,0.1797,0.1848,0.1851,0.1855,0.1887,0.1866,0.1896,0.1911,0.1887,0.1914,0.1915,0.194,0.1943,0.1946,0.1951,0.1953,0.197,0.197,0.1971,0.1971,0,0,0,0,0,0,0,0.1791,0.1795,0.1838,0.1848,0.1853,0.1861,0.1866,0.1872,0.1905,0.189,0.1893,0.1902,0.1942,0.1944,0.1947,0.1954,0.197,0.197,0.1971,0.1971,0.2066,0.2068,0,0,0,0,0,0,0.179,0.1793,0.1836,0.1839,0.1829,0.1861,0.1867,0.1873,0.1905,0.1911,0.1901,0.1904,0.1942,0.1946,0.1949,0.2034,0.1971,0.1971,0.1972,0.2064,0.2066,0.2068,0,0,0,0,0,0,0.1789,0.1793,0.1835,0.1819,0.1826,0.1861,0.1868,0.1874,0.1917,0.1914,0.192,0.1943,0.1943,0.1948,0.1993,0.2032,0.1972,0.1973,0.2062,0.2065,0.2067,0.2136,0,0,0,0,0,0,0.1787,0.1792,0.1816,0.1819,0.1827,0.1866,0.1867,0.1874,0.1919,0.1924,0.1951,0.1955,0.1945,0.1992,0.1994,0.2032,0.1973,0.2059,0.2063,0.2066,0.2131,0.2141,0.2149,0,0,0,0,0,0.1784,0.1803,0.1817,0.1824,0.1852,0.1868,0.1873,0.1899,0.192,0.1943,0.1968,0.1956,0.2017,0.1994,0.1996,0.2036,0.2057,0.2062,0.2066,0.2127,0.2139,0.2149,0,0,0,0,0,0,0.1791,0.1809,0.1825,0.185,0.1872,0.1877,0.1906,0.1923,0.1959,0.1979,0.1976,0.1982,0.2038,0.2028,0.2004,0.2075,0.2037,0.2042,0.2083,0.2093,0.2102,0.2106,0.1974,0,0,0,0,0,0.1802,0.1826,0.184,0.1867,0.1881,0.1903,0.1922,0.1941,0.1964,0.1983,0.2003,0.2027,0.2049,0.2067,0.2082,0.2116,0.2112,0.2145,0.2154,0.2162,0.2168,0.22,0.2212,0.2083,0.2083,0.2083,0,0,0.1814,0.1829,0.1844,0.1872,0.1893,0.1916,0.1918,0.1959,0.1989,0.1981,0.2044,0.2062,0.2067,0.2111,0.2135,0.2112,0.2198,0.2167,0.2174,0.2175,0.2205,0.2218,0.2229,0.2086,0.2085,0.2085,0,0,0.1831,0.1862,0.1884,0.1905,0.1945,0.1956,0.1978,0.2009,0.2039,0.2089,0.2098,0.2143,0.2175,0.2186,0.2193,0.2261,0.2246,0.2274,0.2319,0.2351,0.2361,0.237,0.2382,0.2391,0.2276,0.2276,0.2276,0,0.185,0.1872,0.1894,0.1918,0.1943,0.1979,0.2007,0.2036,0.2083,0.2114,0.2124,0.22,0.2208,0.2255,0.2283,0.2281,0.2292,0.2275,0.2361,0.237,0.2379,0.2388,0.2398,0.2279,0.2279,0.2279,0.2278,0,0.1865,0.1902,0.1918,0.196,0.199,0.2024,0.2061,0.211,0.2156,0.2185,0.2263,0.2282,0.2327,0.234,0.2332,0.24,0.2387,0.237,0.2331,0.2396,0.2402,0.2411,0.2285,0.2284,0.2282,0.2282,0,0,0.1855,0.1917,0.1929,0.1956,0.2018,0.2037,0.2103,0.216,0.2215,0.2273,0.2337,0.2388,0.2419,0.243,0.2436,0.2463,0.253,0.245,0.245,0.2455,0.2597,0.2429,0.2422,0.2536,0.2538,0.2539,0.2577,0,0.1866,0.191,0.1944,0.2001,0.2025,0.2084,0.2137,0.2202,0.2267,0.2339,0.2384,0.2451,0.2446,0.2485,0.2515,0.2532,0.2558,0.2521,0.2539,0.2539,0.2376,0.2427,0.2546,0.2584,0.2586,0.2587,0.2588,0,0.1859,0.1893,0.1945,0.2019,0.2038,0.2087,0.2187,0.2241,0.2346,0.2403,0.2483,0.2521,0.2591,0.2571,0.2637,0.2619,0.2621,0.262,0.2621,0.2444,0.2386,0.2506,0.2604,0.2603,0.2602,0.26,0.2599,0,0.1814,0.189,0.1935,0.1959,0.2049,0.2102,0.2164,0.2271,0.233,0.2458,0.2517,0.2601,0.2655,0.2682,0.2696,0.2682,0.2746,0.2719,0.2564,0.2552,0.2662,0.2652,0.2758,0.2758,0.2758,0.2758,0.2758,0,0.1784,0.1824,0.1927,0.1948,0.2018,0.2093,0.2185,0.2265,0.2383,0.245,0.2555,0.2607,0.2691,0.2731,0.2728,0.2671,0.2776,0.2577,0.2553,0.269,0.2683,0.2668,0.2657,0.276,0.2759,0.2759,0.2759,0,0.1718,0.1786,0.1843,0.1954,0.1997,0.2051,0.2188,0.2242,0.2378,0.2468,0.2513,0.264,0.2687,0.2733,0.2776,0.2691,0.2663,0.2615,0.2764,0.2747,0.244,0.2433,0.2439,0.2433,0.2428,0.2425,0.2421,0,0.1681,0.1707,0.1835,0.1873,0.1932,0.2027,0.2083,0.2228,0.2282,0.2458,0.2478,0.2587,0.2644,0.2563,0.2635,0.2609,0.2574,0.2541,0.248,0.2432,0.2409,0.2409,0.2408,0.2414,0.2412,0.2411,0.241,0,0.1611,0.1678,0.1726,0.1805,0.1875,0.1934,0.203,0.2054,0.2205,0.235,0.2373,0.2389,0.2434,0.2449,0.2448,0.2428,0.2551,0.249,0.2499,0.2442,0.2402,0.2384,0.2388,0.2393,0.2396,0.2397,0.2398,0,0.1568,0.1583,0.1658,0.1709,0.1789,0.1804,0.1871,0.1917,0.1986,0.217,0.2176,0.2287,0.2409,0.2357,0.2361,0.2324,0.2279,0.2188,0.2212,0.2231,0.2143,0.206,0.1928,0,0,0,0,0,0.1509,0.1506,0.1549,0.1587,0.1657,0.1703,0.1811,0.1878,0.2025,0.198,0.2069,0.2096,0.21,0.2166,0.2082,0.227,0.2292,0.2163,0.2201,0.2302,0.2321,0.2236,0,0,0,0,0,0,0.1465,0.1504,0.1506,0.1471,0.1474,0.1531,0.1592,0.1693,0.1674,0.1833,0.1844,0.1965,0.2,0.2119,0.2041,0.2058,0.2035,0.2241,0.2235,0.2291,0.2309,0.2324,0.2243,0,0,0,0,0]},{"header":{"parameterUnit":"m.s-1","parameterCategory":2,"la1":30.2991,"la2":30.254,"lo1":-89.0895,"lo2":-89.0444,"dy":0.0017,"dx":0.0017,"nx":28,"ny":28,"refTime":"2026-01-01T03:00:00:Z","depth":"4","parameterNumber":3,"parameterNumberName":"V-component_of_CURRENTS"},"data":[0,0,0,0,0,0,0,0,0,0,0,0,0,0,0,0,0,0,0,0,0,0,0,0,0,0,0,0,0,0,0,0,0,0,0,0,0,0,0,0,0,0,0,0,0,0,0,0,0,0,0,0,0,0,0,0,0,0,0.0227,0.0227,0,0.0206,0.0206,0.0206,0.0196,0.0196,0.0196,0.0196,0.0171,0.0171,0.017,0,0,0,0,0,0,0,0,0,0,0,0,0,0.022,0.0221,0.0227,0.0227,0.0227,0.0206,0.0206,0.0206,0.0196,0.0196,0.0196,0.0196,0.0171,0.0171,0.017,0,0,0,0,0,0,0,0,0,0,0,0,0,0.0213,0.0221,0.0227,0.022,0.0219,0.0206,0.0206,0.0206,0.0196,0.0196,0.0196,0.0196,0.0172,0.0171,0.017,0.0162,0,0,0.0166,0.0166,0,0,0,0,0,0,0,0,0.0214,0.0214,0.0221,0.022,0.0219,0.0204,0.0195,0.0191,0.0196,0.0204,0.0196,0.0196,0.0182,0.018,0.0175,0.016,0.0159,0.0166,0.0166,0.0165,0.0165,0,0,0,0,0,0,0,0.0214,0.0214,0.0218,0.0221,0.022,0.0204,0.0204,0.0194,0.0192,0.0203,0.0203,0.0201,0.0182,0.0176,0.0175,0.0159,0.0166,0.0165,0.0165,0.0164,0.0144,0.0144,0,0,0,0,0,0,0.022,0.0215,0.0219,0.0218,0.0217,0.0205,0.0204,0.0209,0.0193,0.019,0.0201,0.0201,0.0178,0.0176,0.0174,0.0183,0.0165,0.0164,0.0164,0.0144,0.0144,0.0144,0,0,0,0,0,0,0.022,0.0221,0.022,0.0216,0.0215,0.0205,0.021,0.0208,0.0209,0.0191,0.0189,0.0205,0.0178,0.0175,0.0173,0.0181,0.0164,0.0163,0.0144,0.0144,0.0144,0.0188,0,0,0,0,0,0,0.022,0.0221,0.0228,0.0217,0.0215,0.0222,0.021,0.0208,0.0208,0.0207,0.0193,0.0191,0.0178,0.0175,0.0172,0.0179,0.0162,0.0144,0.0144,0.0144,0.0186,0.0189,0.0192,0,0,0,0,0,0.022,0.0231,0.0229,0.0229,0.0225,0.0222,0.022,0.0212,0.0208,0.0213,0.0203,0.0192,0.0174,0.0174,0.0171,0.0178,0.0144,0.0144,0.0144,0.0185,0.0189,0.0192,0,0,0,0,0,0,0.0231,0.0231,0.0228,0.0239,0.0234,0.0221,0.0224,0.0217,0.0212,0.0213,0.0195,0.0192,0.0191,0.0177,0.0178,0.0171,0.0156,0.0155,0.0188,0.0191,0.0194,0.0209,0.0161,0,0,0,0,0,0.0237,0.0247,0.024,0.0249,0.0248,0.0237,0.0235,0.023,0.0223,0.0221,0.0211,0.0198,0.0188,0.0185,0.0173,0.0172,0.0149,0.0172,0.0175,0.0178,0.0187,0.0155,0.0156,0.0145,0.0145,0.0145,0,0,0.0243,0.0244,0.025,0.0252,0.0247,0.0256,0.0236,0.0238,0.0246,0.0219,0.0227,0.0209,0.0189,0.0188,0.0186,0.0179,0.0168,0.0178,0.0181,0.0189,0.0155,0.0156,0.0157,0.0145,0.0145,0.0145,0,0,0.0261,0.0262,0.0277,0.0279,0.0277,0.0271,0.0275,0.0267,0.0264,0.0266,0.0247,0.0235,0.0223,0.0209,0.0201,0.0212,0.0184,0.0207,0.0237,0.0206,0.0206,0.0207,0.0176,0.0173,0.021,0.021,0.021,0,0.0268,0.0289,0.028,0.0295,0.0304,0.0283,0.0303,0.0296,0.0288,0.029,0.0276,0.0253,0.0233,0.0231,0.0234,0.022,0.0198,0.0227,0.021,0.021,0.021,0.0178,0.0174,0.0212,0.0212,0.0212,0.0212,0,0.0298,0.0317,0.0325,0.0342,0.0348,0.036,0.0353,0.0353,0.0345,0.0339,0.0333,0.0299,0.0288,0.0274,0.0259,0.025,0.0234,0.0217,0.0204,0.0213,0.0179,0.0174,0.0215,0.0215,0.0214,0.0213,0,0,0.0313,0.0343,0.0347,0.037,0.0377,0.0388,0.0397,0.0406,0.0422,0.0395,0.0407,0.0374,0.0354,0.0343,0.0313,0.0283,0.0255,0.0256,0.0253,0.023,0.0187,0.017,0.0163,0.0236,0.0236,0.0236,0.0163,0,0.0343,0.0388,0.0393,0.0438,0.0462,0.0453,0.047,0.0472,0.0466,0.0469,0.0424,0.0425,0.0381,0.0378,0.034,0.028,0.0247,0.0277,0.0177,0.0174,0.0162,0.0158,0.0234,0.0159,0.0158,0.0157,0.0157,0,0.0373,0.0403,0.0453,0.0499,0.0509,0.0532,0.0561,0.0575,0.0566,0.0562,0.0541,0.0506,0.0464,0.0422,0.0321,0.0344,0.0274,0.0218,0.0213,0.0182,0.0149,0.0146,0.0148,0.0149,0.0149,0.015,0.015,0,0.0397,0.0447,0.0494,0.0509,0.055,0.0574,0.0597,0.0606,0.0634,0.0625,0.0635,0.0573,0.055,0.0451,0.0332,0.0329,0.0212,0.019,0.0106,0.0104,0.0122,0.0122,0.0117,0.0117,0.0117,0.0117,0.0117,0,0.0427,0.0466,0.0513,0.0541,0.0606,0.0618,0.0683,0.0691,0.0713,0.0755,0.0692,0.0693,0.0557,0.047,0.0352,0.0217,0.0224,0.0113,0.0085,0.0141,0.0144,0.0118,0.012,0.0114,0.0115,0.0115,0.0116,0,0.0444,0.0472,0.0536,0.0595,0.0621,0.067,0.0752,0.0795,0.0807,0.0853,0.0853,0.0785,0.0673,0.0523,0.0359,0.0255,0.0118,0.0067,0.0141,0.0118,0.0026,0.003,-0.003,-0.0032,-0.0033,-0.0033,-0.0034,0,0.0456,0.049,0.058,0.0629,0.0662,0.074,0.0797,0.0841,0.0891,0.0908,0.0928,0.0837,0.0769,0.0528,0.0363,0.0132,0.0096,0.0022,0.0019,0.0033,0.0011,0.0017,0.0023,-0.0036,-0.0036,-0.0036,-0.0037,0,0.048,0.0515,0.0568,0.0669,0.0744,0.0833,0.0916,0.0957,0.1005,0.1016,0.099,0.0862,0.0732,0.0534,0.0354,0.0187,0.0067,0.001,0.0011,0.0008,0.0026,0.0006,0.0013,-0.004,-0.0039,-0.0039,-0.0039,0,0.0499,0.054,0.0614,0.0704,0.0802,0.0895,0.0941,0.0996,0.1041,0.1052,0.104,0.0894,0.0814,0.0563,0.0397,0.023,0.0183,0.0122,0.0116,0.0118,0.0175,0.022,0.0193,0,0,0,0,0,0.0512,0.056,0.0644,0.0745,0.0845,0.0907,0.1006,0.1043,0.1085,0.1075,0.1061,0.0937,0.0692,0.0587,0.0418,0.0365,0.0146,0.0158,0.007,-0.0059,-0.0055,-0.0015,0,0,0,0,0,0,0.052,0.0594,0.0638,0.0762,0.0838,0.0952,0.1019,0.1051,0.1048,0.1058,0.0933,0.0881,0.0645,0.0787,0.0409,0.036,0.0277,0.0049,0.0045,-0.0062,-0.0058,-0.0055,-0.0012,0,0,0,0,0]}]]